Погода в Плесе

Россия / Архангельская область     61°42′28″N   42°17′21″E
темп.,
°C
ветер,
м/с
пор.,
м/с
влажн.,
%
обл.,
%
осадки,
мм/ч
давл.,
гПа
погр.,
м
18 апреля, вс
вс1800:00+5с310785 0.0 1030292
03:00+3ссв39855 0.0 1031299
06:00+2ссв389195 0.0 1032547
09:00+3св45507 0.0 1033865
12:00+6всв45315 0.0 10341285
15:00+7всв45294 0.0 10341561
18:00+6в34365 0.0 10341533
21:00+2всв26585 0.0 1035125
19 апреля, пн
пн1900:000в22680 0.0 103629
03:00−1всв11690 0.0 103712
06:000в13633 0.0 1037136
09:00+5вюв24415 0.0 10371074
12:00+7вюв333235 0.0 10361554
15:00+8вюв3332100 0.0 10351616
18:00+6вюв244381 0.0 1035209
21:00+2юв11615 0.0 103511
20 апреля, вт
вт2000:000юв11690 0.0 103510
03:00−1ююв11720 0.0 103510
06:000ююв13670 0.0 1035127
09:00+6ююв25430 0.0 1035761
12:00+9юв35320 0.0 10331372
15:00+10ююв45290 0.0 10311534
18:00+9юв36370 0.0 1029664
21:00+3вюв28605 0.0 1029136
21 апреля, ср
ср2100:00+1юв22706 0.0 102832
03:000вюв277593 0.0 1027144
06:00+1юв3126498 0.0 1025444
09:00+7юв51340100 0.0 10221002
12:00+9юв61438100 0.0 10191276
15:00+7ююв61655100 0.1 10171473
18:00+4юв61583100 1.4 10151174
21:00+4ююв61488100 1.7 10141102
22 апреля, чт
чт2200:00+3ююв51397100 0.3 1012989
03:00+4ююв51396100 0.6 10121128
06:00+5ююв61393100 0.6 10121154
09:00+6ю61277100 0.6 10131516
12:00+6ю61273100 0.2 10141333
15:00+8ююз61366100 0.4 10151643
18:00+5ююз5118595 0.2 10181027
21:00+4ююз4984100 0.3 1020993